Vorticity
13 9 4 7 8 6 6 4 5 4 4 7 6 1 1 1 -0 -1 7 15 15 10 3 3 5 10 9 2 5 16 12 3 6 5 4 3 1 2 7 8 14 6 9 14
6 2 6 5 4 4 4 5 4 3 4 7 4 4 2 2 -3 3 8 10 14 13 10 5 6 6 13 5 3 7 18 9 1 7 5 3 5 3 10 8 13 7 7 14
4 2 0 1 2 1 2 3 4 3 4 3 4 8 -4 -1 9 5 8 11 9 18 13 10 8 5 17 8 2 8 7 10 7 2 5 6 6 5 9 9 10 8 5 16
1 3 1 0 1 2 3 7 4 5 7 6 6 12 6 8 3 1 4 7 9 9 17 11 6 7 8 14 5 9 8 7 12 5 3 7 6 6 14 6 8 8 5 8
3 1 3 5 6 6 4 2 4 6 8 9 11 19 10 7 1 2 -0 2 6 16 9 19 11 6 8 5 8 11 11 7 8 9 5 5 10 6 6 12 5 10 8 5
7 6 4 1 3 3 6 10 8 8 10 8 -5 -1 21 7 15 4 3 2 8 8 13 18 13 10 5 7 6 14 9 10 5 10 8 5 6 7 7 9 12 6 6 5
2 3 4 8 8 7 6 6 15 20 21 13 7 28 32 20 9 22 14 4 7 7 11 10 17 9 7 7 3 17 9 10 8 4 10 6 4 5 7 7 9 11 6 4
1 10 7 7 6 7 21 19 14 13 7 14 6 -9 82 60 52 43 15 15 7 10 8 17 21 9 8 8 5 11 7 8 10 4 4 5 3 5 6 9 9 10 9 9
13 8 8 6 19 10 11 7 8 17 15 8 -3 11 34 11 26 31 39 49 20 5 7 15 12 17 8 11 11 9 5 6 9 6 3 5 4 4 5 7 8 7 8 8
8 3 9 15 7 8 12 12 11 9 4 1 14 21 69 -3 -2 -1 16 22 43 16 12 15 10 14 11 10 13 8 6 7 9 6 4 4 5 4 6 9 9 8 9 10
1 13 10 7 10 10 9 18 15 10 6 9 25 28 8 -0 4 18 36 12 19 28 16 15 16 10 10 7 10 10 9 8 10 9 7 4 4 6 7 8 9 8 8 7
19 6 11 17 12 7 4 13 8 8 33 21 24 40 31 21 11 23 18 19 11 30 16 14 8 15 7 11 8 8 7 8 10 11 5 4 6 7 8 9 9 7 6 6
10 14 10 13 11 12 8 3 21 22 4 22 15 16 17 24 28 18 24 24 17 18 17 11 2 17 14 8 13 13 11 9 10 11 6 6 8 8 8 7 7 6 6 6
5 14 12 6 11 9 10 7 12 12 27 10 30 38 19 19 20 11 20 17 22 22 16 13 9 8 14 14 16 13 9 10 12 8 5 9 8 7 7 7 7 7 7 11
16 18 6 11 12 14 10 16 9 15 17 22 9 15 -2 14 22 23 14 20 19 19 12 19 9 11 13 15 12 9 8 9 7 5 6 6 6 8 8 8 8 9 10 7
9 9 8 11 3 14 29 17 13 25 13 14 11 1 28 21 34 12 8 17 41 12 23 15 10 13 10 8 8 10 10 9 9 6 9 9 8 8 7 10 15 8 5 7
19 16 14 8 6 9 21 16 6 -1 18 22 16 26 31 43 34 12 18 34 34 33 16 13 15 11 9 8 10 11 10 8 11 9 7 5 6 8 18 11 5 8 8 4
9 18 9 17 7 10 7 25 18 31 20 9 15 16 37 35 32 25 30 20 19 14 13 15 12 13 12 11 9 12 10 8 8 7 7 12 17 11 6 9 8 5 5 6
2 8 -4 5 13 9 12 17 26 16 23 41 4 3 -6 7 12 14 21 6 10 15 10 7 4 5 7 8 8 7 5 7 8 11 10 8 10 11 8 5 5 5 7 5
9 9 8 1 6 2 1 -2 7 -4 26 34 46 5 61 -23 15 6 -1 11 8 9 10 5 -9 12 10 4 3 8 15 15 12 13 14 9 7 5 5 4 6 6 4 6
8 6 1 9 7 2 -6 5 -3 13 2 6 11 6 11 28 29 26 4 13 7 17 24 24 12 9 13 13 13 10 9 9 8 6 7 6 5 3 3 7 4 7 9 9
4 1 5 5 7 4 7 7 -11 8 4 3 -3 2 4 7 3 9 5 20 29 28 26 19 11 12 8 10 5 5 7 7 7 6 5 2 4 8 4 8 10 10 6 5
2 4 2 9 10 2 6 4 5 3 7 7 5 4 3 -5 -7 -3 10 -0 3 1 0 2 16 10 5 5 5 6 6 5 4 3 8 7 6 9 12 12 6 4 8 6
-1 4 7 0 10 10 4 3 7 7 8 12 12 8 9 8 8 8 7 4 7 7 2 4 4 6 6 5 5 6 5 7 9 4 6 8 12 12 7 4 8 6 8 10
4 4 6 8 2 9 11 8 9 14 16 10 6 7 9 11 12 12 12 10 7 9 7 6 5 6 7 6 5 13 7 3 4 7 10 11 10 6 8 6 7 10 11 7
12 7 5 12 7 16 10 9 13 16 17 14 13 11 10 11 13 12 9 7 8 14 11 7 4 8 9 12 7 3 4 7 10 10 12 8 9 5 6 8 12 9 6 5
Height
5693 5699 5700 5702 5705 5707 5708 5709 5710 5711 5712 5714 5716 5719 5720 5723 5725 5727 5728 5729 5728 5730 5735 5738 5742 5745 5746 5748 5750 5752 5755 5756 5757 5759 5760 5760 5763 5764 5766 5766 5766 5765 5765 5764
5689 5693 5695 5697 5699 5699 5700 5701 5701 5701 5701 5703 5705 5712 5711 5712 5715 5716 5717 5718 5719 5721 5722 5725 5729 5734 5738 5739 5741 5744 5746 5748 5748 5751 5751 5753 5754 5756 5757 5758 5758 5757 5757 5757
5683 5688 5689 5689 5691 5692 5692 5692 5692 5691 5690 5691 5691 5697 5696 5700 5703 5704 5705 5707 5708 5709 5711 5715 5718 5723 5726 5729 5732 5736 5738 5739 5740 5742 5743 5746 5747 5749 5750 5750 5749 5749 5750 5750
5678 5680 5681 5682 5683 5683 5683 5683 5682 5680 5679 5678 5679 5677 5685 5686 5691 5691 5693 5694 5696 5697 5698 5701 5706 5710 5716 5719 5722 5727 5731 5732 5733 5734 5735 5738 5741 5741 5742 5742 5742 5742 5742 5742
5673 5674 5674 5674 5674 5673 5672 5671 5669 5666 5662 5658 5665 5651 5669 5671 5675 5678 5677 5680 5681 5682 5685 5688 5693 5698 5703 5707 5712 5717 5721 5723 5726 5727 5727 5731 5733 5735 5734 5734 5735 5735 5735 5734
5666 5666 5667 5666 5665 5663 5661 5659 5654 5650 5645 5640 5652 5631 5641 5655 5652 5656 5660 5661 5663 5665 5671 5675 5679 5685 5690 5696 5702 5707 5711 5714 5717 5720 5721 5723 5725 5726 5726 5727 5727 5727 5727 5726
5659 5659 5659 5658 5656 5654 5650 5646 5638 5631 5626 5625 5622 5608 5619 5633 5633 5631 5636 5639 5641 5649 5656 5662 5667 5673 5680 5687 5693 5699 5702 5706 5709 5712 5714 5716 5716 5718 5718 5719 5719 5719 5719 5717
5651 5654 5653 5650 5647 5642 5636 5632 5626 5615 5611 5606 5598 5597 5599 5597 5602 5605 5607 5614 5624 5634 5643 5650 5654 5660 5667 5675 5682 5688 5693 5696 5700 5704 5706 5707 5709 5709 5711 5712 5712 5711 5710 5708
5645 5646 5644 5641 5635 5630 5625 5621 5614 5603 5600 5588 5587 5588 5585 5587 5583 5585 5586 5593 5606 5619 5629 5638 5645 5651 5658 5665 5672 5678 5683 5688 5692 5696 5699 5700 5701 5702 5704 5704 5704 5703 5701 5700
5638 5635 5636 5631 5626 5621 5614 5611 5604 5595 5585 5577 5573 5576 5575 5575 5574 5575 5576 5580 5590 5604 5615 5625 5633 5640 5648 5656 5663 5669 5674 5678 5682 5687 5690 5692 5694 5695 5697 5696 5695 5694 5693 5691
5629 5628 5630 5626 5619 5614 5607 5601 5593 5584 5578 5570 5566 5567 5566 5565 5567 5567 5567 5570 5577 5591 5602 5614 5623 5630 5638 5647 5655 5660 5665 5669 5674 5678 5683 5685 5687 5689 5688 5688 5687 5686 5685 5683
5621 5622 5620 5617 5613 5606 5599 5592 5585 5576 5571 5562 5559 5554 5559 5557 5557 5557 5559 5560 5568 5581 5593 5603 5613 5621 5630 5640 5648 5653 5657 5661 5666 5670 5675 5678 5680 5681 5680 5679 5679 5678 5677 5675
5617 5616 5612 5612 5608 5600 5593 5588 5579 5568 5563 5560 5555 5550 5549 5549 5548 5548 5549 5553 5561 5573 5582 5594 5605 5613 5622 5633 5640 5645 5650 5654 5659 5665 5669 5672 5673 5673 5673 5672 5671 5670 5668 5666
5612 5610 5607 5603 5599 5592 5587 5582 5574 5565 5560 5556 5551 5546 5543 5541 5542 5543 5546 5551 5556 5566 5575 5587 5598 5607 5616 5625 5632 5638 5643 5648 5654 5658 5662 5665 5665 5666 5666 5665 5664 5662 5660 5657
5608 5607 5604 5601 5596 5591 5585 5578 5571 5565 5559 5553 5550 5546 5542 5539 5539 5539 5544 5549 5554 5561 5570 5583 5594 5603 5611 5619 5627 5633 5639 5644 5649 5653 5656 5658 5659 5659 5659 5658 5656 5654 5651 5648
5606 5604 5601 5598 5593 5588 5581 5575 5570 5564 5558 5553 5550 5546 5543 5540 5539 5541 5544 5549 5554 5559 5570 5581 5591 5600 5609 5616 5623 5630 5636 5641 5645 5648 5651 5652 5653 5653 5652 5650 5648 5645 5642 5639
5602 5601 5599 5596 5593 5587 5581 5574 5570 5565 5559 5555 5550 5547 5542 5540 5540 5543 5546 5551 5557 5564 5572 5582 5592 5600 5608 5615 5620 5627 5632 5637 5640 5643 5644 5646 5646 5645 5644 5641 5639 5637 5634 5630
5600 5599 5597 5594 5592 5585 5580 5575 5570 5564 5562 5558 5552 5548 5544 5544 5545 5548 5551 5557 5563 5571 5578 5586 5594 5601 5608 5613 5619 5625 5629 5633 5635 5638 5638 5638 5638 5637 5635 5633 5631 5629 5626 5622
5599 5599 5595 5593 5591 5589 5584 5579 5574 5569 5565 5560 5558 5555 5555 5553 5554 5556 5559 5565 5571 5576 5582 5589 5596 5603 5609 5613 5618 5623 5626 5627 5629 5630 5631 5631 5631 5629 5628 5627 5624 5621 5617 5612
5597 5596 5595 5594 5593 5591 5588 5584 5580 5576 5572 5567 5566 5562 5560 5561 5563 5566 5570 5574 5577 5582 5587 5592 5597 5603 5607 5611 5615 5617 5619 5621 5624 5625 5626 5625 5624 5623 5622 5620 5617 5612 5607 5602
5594 5593 5594 5595 5594 5593 5590 5587 5585 5583 5582 5576 5574 5572 5571 5571 5571 5572 5575 5578 5582 5584 5588 5592 5597 5601 5605 5608 5611 5614 5616 5618 5620 5620 5620 5620 5619 5617 5614 5611 5607 5602 5598 5592
5591 5591 5593 5594 5594 5594 5592 5590 5589 5587 5584 5582 5580 5578 5579 5578 5578 5580 5581 5583 5586 5587 5590 5593 5596 5599 5603 5606 5609 5612 5614 5615 5615 5616 5615 5613 5612 5609 5606 5602 5598 5593 5588 5583
5589 5590 5591 5594 5593 5592 5592 5591 5590 5588 5587 5586 5585 5584 5583 5583 5583 5584 5586 5588 5591 5592 5594 5596 5598 5600 5603 5605 5608 5609 5610 5611 5611 5610 5609 5607 5605 5602 5598 5593 5589 5584 5578 5573
5585 5586 5589 5591 5592 5590 5590 5591 5590 5588 5587 5587 5586 5586 5587 5587 5587 5588 5589 5590 5591 5593 5595 5597 5600 5602 5603 5604 5605 5606 5605 5606 5605 5604 5603 5600 5597 5593 5589 5585 5580 5575 5569 5562
5581 5583 5585 5588 5589 5589 5589 5589 5589 5588 5587 5587 5587 5587 5588 5588 5589 5589 5590 5591 5593 5594 5596 5597 5599 5601 5602 5601 5601 5602 5602 5601 5600 5598 5596 5593 5589 5585 5581 5576 5571 5565 5559 5552
5576 5579 5582 5584 5585 5586 5587 5588 5587 5587 5587 5587 5587 5587 5587 5588 5588 5589 5590 5591 5592 5594 5595 5597 5598 5598 5599 5599 5598 5598 5598 5597 5594 5592 5589 5585 5581 5577 5572 5567 5561 5555 5549 5542